FENGYUN 1C DEB

Satellite information

Favourite Embed

Satellite Type and Status

DEBRISIN ORBIT

Key statistics

Satellite FENGYUN 1C DEB at a glance.

Uptime

9619

Days in orbit

Revolutions

≈ 13.6

Per day

Orbit

SSO

Sun Synchronous Orbit

Inclination

101.9

Latest

Satellite identification and parameters

Extended collection of information and parameters for FENGYUN 1C DEB.

Object identification

Identified? True

Debris? True

Object name: FENGYUN 1C DEB

International designator: 1999-025DPZ

Object number (NORAD): 35217

Object ID (CCSDS): 35217

Country: PEOPLES REPUBLIC OF CHINA (PRC)

Current information (Y/N): Y

RCS size: SMALL

Orbital parameters

Period: 106.132 minutes

Inclination: 101.8746 deg

SMA: 7425.48 km

Apoapsis: 1268.054 km

Periapsis: 826.636 km

RAAN: 144.6057 deg

Eccentricy: 0.02972318

Argument of periapsis: 160.1888 deg

Mean anomaly: 201.1077 deg

Mean motion: 13.56800498 rev/day

Mean motion (dot): 0.00002032 rev/day2

B* drag term: 0.0022162925 1/REarth

Two-line elements (TLE)

Creation date: Sept. 7, 2025, 3:09 a.m.

Reference frame: TEME

Reference center: EARTH

Epoch: Sept. 6, 2025, 11:15 a.m. UTC

TLE line 0: 0 FENGYUN 1C DEB

TLE line 1: 1 35217U 99025DPZ 25249.46882792 .00002032 00000-0 22163-2 0 9994

TLE line 2: 2 35217 101.8746 144.6057 0297232 160.1888 201.1077 13.56800498599006

Live tracking on map

Real-time ground track for satellite FENGYUN 1C DEB.

In-orbit conjunctions

A list of the most updated potential collisions computed for object FENGYUN 1C DEB.

Target Orbit TCA Probability of collision Miss distance Type
CZ-6A DEB SSO 2025-05-27 10:03:30 0.0001781762 126.0 (m) DEBRIS
COSMOS 2251 DEB LEO 2024-11-08 18:32:00 0.0002300908 446.0 (m) DEBRIS

Associated space launch

Chinese polar orbiting meteorological satellite

FENGYUN 1C DEB was lifted into orbit during the mission ‘Long March 4B | Feng Yun 1C’, on board a Long March 4B space rocket.

The launch took place on May 10, 1999, 1:33 a.m. from Launch Complex 7.

For more information about the launch, click the button.

Launch to space Long March 4B | Feng Yun 1C
Long March 4B | Feng Yun 1C

Agency: N/A

Status: Launch Successful

Launch date: May 10, 1999, 1:33 a.m. UTC

Rocket: Long March 4B

Launch pad: Launch Complex 7

Location: Taiyuan Satellite Launch Center, People's Republic of China

...

Latest news about this satellite

There are no fresh news available about this satellite. Check back as we update our databases every day.


Newsletter sign-up

Weekly statistics, charts and insights to help you stay on top of the space industry.